Location: Most
(50.5133°N, 13.6207°E)
Time: 13:49:43
(UTC+01:00)

UNHA 3 R/B - Pass Details

Date: 27 September 2020
Orbit: 479 x 556 km, 97.4° (Epoch: 27 October)

Event Time Altitude Azimuth Distance (km) Brightness Sun altitude
Rises 05:43:26 0° 10° (N) 2,639 9.1 -12.9°
Reaches altitude 10° 05:45:32 10° 6° (N) 1,760 8.1 -12.6°
Maximum altitude 05:49:16 60° 287° (WNW) 611 5.3 -12.0°
Drops below altitude 10° 05:53:05 10° 208° (SSW) 1,789 7.6 -11.4°
Enters shadow 05:54:47 - 205° (SSW) 2,502 8.3 -11.1°
